Flag for Germany Weather past 2 weeks in Rheda-Wiedenbrück, North Rhine-Westphalia, Germany

Now
37 °F

Partly sunny.


Feels Like: 31 °F
Forecast: 34 / 52 °F
Wind: 8 mph from Southwest

Location: Paderborn / Lippstadt

Current Time: Mar 6, 2015 at 7:44:33 AM

Latest Report: Mar 6, 2015 at 7:20 AM


Visibility: N/A

Pressure: 30.57 "Hg

Humidity: 93%

Dew point: 36 °F

Location of Rheda-WiedenbrückLocation

Historic Weather in Rheda-Wiedenbrück — Graph

°F

Rheda-Wiedenbrück temperature yesterday

Maximum temperature yesterday: 41 °F (at 2:20 PM)
Minimum temperature yesterday: 34 °F (at 7:20 AM)
Average temperature yesterday: 37 °F

Past Weeks' High & Low Weather Summary

 TemperatureHumidityPressure
High48 °F (Mar 1, 11:50 AM)100% (Feb 19, 6:20 AM)30.60 "Hg (Feb 19, 6:20 AM)
Low27 °F (Feb 20, 12:20 AM)42% (Feb 28, 4:20 PM)29.33 "Hg (Feb 21, 6:50 AM)
Average38 °F85%29.90 "Hg
* Reported Feb 19 6:20 AM — Mar 6 6:20 AM, Rheda-Wiedenbrück, Weather by CustomWeather, © 2015

Note: Actual official high and low records may vary slightly from our data, if they occured in-between our weather recording intervals... More about our weather records

Advertising

Rheda-Wiedenbrück weather history for previous 24 hours

 ConditionsComfort  
Time TempWeatherWind HumidityBarometerVisibility
6:20 AM
Fri, Mar 6
36 °FPassing clouds.9 mph100%30.57 "HgN/A
5:50 AM37 °FPassing clouds.12 mph93%30.57 "HgN/A
5:20 AM37 °FPassing clouds.7 mph93%30.57 "HgN/A
4:50 AM37 °FPassing clouds.7 mph93%30.57 "HgN/A
4:20 AM34 °FPassing clouds.7 mph100%30.60 "HgN/A
3:50 AM36 °FPassing clouds.12 mph100%30.57 "HgN/A
3:20 AM36 °FPassing clouds.9 mph100%30.60 "HgN/A
2:50 AM36 °FClear.9 mph93%30.60 "Hg10 mi
2:20 AM32 °FClear.9 mph100%30.60 "Hg10 mi
1:50 AM32 °FClear.9 mph100%30.60 "Hg10 mi
1:20 AM34 °FPassing clouds.9 mph93%30.60 "HgN/A
12:50 AM34 °FPassing clouds.7 mph100%30.60 "HgN/A
12:20 AM39 °FClear.6 mph93%30.60 "Hg10 mi
11:50 PM
Thu, Mar 5
36 °FClear.7 mph100%30.60 "Hg10 mi
11:20 PM36 °FPassing clouds.8 mph93%30.60 "HgN/A
10:50 PM36 °FPassing clouds.9 mph93%30.60 "HgN/A
10:20 PM36 °FPassing clouds.8 mph100%30.60 "HgN/A
9:20 PM36 °FPassing clouds.8 mph93%30.60 "HgN/A
8:50 PM36 °FPassing clouds.7 mph100%30.60 "HgN/A
8:20 PM37 °FPassing clouds.7 mph100%30.60 "HgN/A
7:50 PM39 °FPassing clouds.6 mph93%30.60 "HgN/A
7:20 PM39 °FPassing clouds.6 mph93%30.60 "HgN/A
6:50 PM39 °FPassing clouds.6 mph87%30.60 "HgN/A
6:20 PM41 °FPassing clouds.6 mph81%30.60 "HgN/A
5:50 PM41 °FPartly sunny.5 mph81%30.60 "HgN/A
5:20 PM41 °FBroken clouds.5 mph81%30.60 "HgN/A
4:50 PM41 °FBroken clouds.6 mph81%30.60 "HgN/A
4:20 PM41 °FBroken clouds.7 mph81%30.60 "HgN/A
3:50 PM41 °FBroken clouds.8 mph87%30.60 "HgN/A
3:20 PM41 °FBroken clouds.8 mph81%30.60 "HgN/A
2:50 PM41 °FBroken clouds.9 mph93%30.60 "HgN/A
2:20 PM41 °FBroken clouds.8 mph87%30.60 "HgN/A
1:50 PM39 °FBroken clouds.8 mph93%30.60 "HgN/A
1:20 PM39 °FBroken clouds.8 mph100%30.60 "HgN/A
12:50 PM37 °FBroken clouds.7 mph100%30.60 "HgN/A
12:20 PM37 °FBroken clouds.9 mph100%30.60 "Hg6 mi
11:50 AM37 °FBroken clouds.9 mph100%30.60 "Hg6 mi
11:20 AM37 °FBroken clouds.8 mph100%30.60 "Hg6 mi
10:50 AM37 °FBroken clouds.8 mph93%30.60 "HgN/A
10:20 AM37 °FBroken clouds.7 mph93%30.60 "Hg4 mi
9:50 AM36 °FBroken clouds.7 mph100%30.60 "Hg4 mi
9:20 AM36 °FBroken clouds.7 mph100%30.60 "Hg5 mi
8:50 AM36 °FDrizzle. Broken clouds.7 mph100%30.57 "Hg5 mi
8:20 AM34 °FDrizzle. Partly sunny.5 mph100%30.57 "Hg5 mi
7:50 AM34 °FPartly sunny.7 mph100%30.57 "Hg5 mi
7:20 AM34 °FPartly sunny.7 mph100%30.57 "Hg5 mi
Weather by CustomWeather, © 2015

See weather overviewHow to use our weather pages